Time,TemperatureF,DewpointF,PressureIn,WindDirection,WindDirectionDegrees,WindSpeedMPH,WindSpeedGustMPH,Humidity,HourlyPrecipIn,Conditions,Clouds,dailyrainin,SoftwareType,DateUTC
2013-02-08 00:02:00,27.0,23.0,29.91,ESE,113,0.0,0.0,84,0.00,,,0.02,,2013-02-08 05:02:00,
2013-02-08 00:12:00,27.0,23.0,29.91,ESE,113,0.0,0.0,84,0.00,,,0.02,,2013-02-08 05:12:00,
2013-02-08 00:22:00,27.0,23.0,29.90,East,90,0.0,0.0,85,0.00,,,0.02,,2013-02-08 05:22:00,
2013-02-08 00:32:00,27.0,23.0,29.90,NE,45,0.0,0.0,85,0.00,,,0.02,,2013-02-08 05:32:00,
2013-02-08 00:42:00,27.0,23.0,29.90,NE,45,0.0,0.0,85,0.00,,,0.02,,2013-02-08 05:42:00,
2013-02-08 00:52:00,27.0,23.0,29.89,NE,45,0.0,0.0,85,0.00,,,0.02,,2013-02-08 05:52:00,
2013-02-08 01:01:00,27.0,23.0,29.88,NE,45,0.0,0.0,85,0.00,,,0.02,,2013-02-08 06:01:00,
2013-02-08 01:11:00,27.0,23.0,29.88,NE,45,0.0,0.0,85,0.00,,,0.02,,2013-02-08 06:11:00,
2013-02-08 01:21:00,27.0,23.0,29.88,NE,45,0.0,0.0,86,0.00,,,0.02,,2013-02-08 06:21:00,
2013-02-08 01:32:00,27.0,23.0,29.88,NE,45,0.0,0.0,86,0.00,,,0.02,,2013-02-08 06:32:00,
2013-02-08 01:42:00,27.0,23.0,29.88,NE,45,0.0,0.0,86,0.00,,,0.02,,2013-02-08 06:42:00,
2013-02-08 01:52:00,27.0,23.0,29.86,NNE,23,0.0,0.0,86,0.00,,,0.02,,2013-02-08 06:52:00,
2013-02-08 02:01:00,27.0,23.0,29.86,NNE,23,0.0,0.0,86,0.00,,,0.02,,2013-02-08 07:01:00,
2013-02-08 02:11:00,27.0,23.0,29.86,NNE,23,0.0,0.0,86,0.00,,,0.02,,2013-02-08 07:11:00,
2013-02-08 02:21:00,27.0,23.0,29.86,NNE,23,0.0,0.0,86,0.00,,,0.02,,2013-02-08 07:21:00,
2013-02-08 02:32:00,27.0,24.0,29.86,NNE,23,0.0,0.0,87,0.00,,,0.02,,2013-02-08 07:32:00,
2013-02-08 02:42:00,27.0,24.0,29.87,NNE,23,0.0,0.0,87,0.00,,,0.02,,2013-02-08 07:42:00,
2013-02-08 02:52:00,27.0,24.0,29.87,NNE,23,0.0,0.0,87,0.00,,,0.02,,2013-02-08 07:52:00,
2013-02-08 03:01:00,27.0,24.0,29.86,NNE,23,0.0,0.0,87,0.00,,,0.02,,2013-02-08 08:01:00,
2013-02-08 03:11:00,27.0,24.0,29.87,NE,45,0.0,0.0,87,0.00,,,0.02,,2013-02-08 08:11:00,
2013-02-08 03:21:00,27.0,24.0,29.87,NE,45,0.0,0.0,87,0.00,,,0.02,,2013-02-08 08:21:00,
2013-02-08 03:32:00,27.0,24.0,29.87,ENE,68,0.0,0.0,87,0.00,,,0.02,,2013-02-08 08:32:00,
2013-02-08 03:42:00,27.0,24.0,29.87,ENE,68,0.0,0.0,87,0.00,,,0.02,,2013-02-08 08:42:00,
2013-02-08 03:52:00,28.0,25.0,29.87,North,0,0.0,0.0,87,0.00,,,0.02,,2013-02-08 08:52:00,
2013-02-08 04:03:00,28.0,25.0,29.87,NNE,23,0.0,0.0,87,0.00,,,0.02,,2013-02-08 09:03:00,
2013-02-08 04:11:00,28.0,25.0,29.87,NNE,23,0.0,0.0,87,0.00,,,0.02,,2013-02-08 09:11:00,
2013-02-08 04:21:00,28.0,25.0,29.88,North,0,0.0,0.0,88,0.00,,,0.02,,2013-02-08 09:21:00,
2013-02-08 04:32:00,28.0,25.0,29.87,NNE,23,0.0,0.0,88,0.00,,,0.02,,2013-02-08 09:32:00,
2013-02-08 04:42:00,28.0,25.0,29.87,NNE,23,0.0,0.0,88,0.00,,,0.02,,2013-02-08 09:42:00,
2013-02-08 04:52:00,28.0,25.0,29.88,NNE,23,0.0,0.0,88,0.00,,,0.02,,2013-02-08 09:52:00,
2013-02-08 05:01:00,28.0,25.0,29.89,NE,45,0.0,0.0,88,0.00,,,0.02,,2013-02-08 10:01:00,
2013-02-08 05:12:00,28.0,25.0,29.89,NE,45,0.0,0.0,88,0.00,,,0.02,,2013-02-08 10:12:00,
2013-02-08 05:22:00,28.0,25.0,29.89,NE,45,0.0,0.0,88,0.00,,,0.02,,2013-02-08 10:22:00,
2013-02-08 05:32:00,28.0,25.0,29.89,North,0,0.0,0.0,88,0.00,,,0.02,,2013-02-08 10:32:00,
2013-02-08 05:42:00,28.0,25.0,29.89,North,0,0.0,0.0,88,0.00,,,0.02,,2013-02-08 10:42:00,
2013-02-08 05:52:00,28.0,25.0,29.89,North,0,0.0,0.0,88,0.00,,,0.02,,2013-02-08 10:52:00,
2013-02-08 06:01:00,28.0,25.0,29.91,North,0,0.0,0.0,88,0.00,,,0.02,,2013-02-08 11:01:00,
2013-02-08 06:11:00,28.0,25.0,29.91,North,0,0.0,0.0,88,0.00,,,0.02,,2013-02-08 11:11:00,
2013-02-08 06:21:00,27.0,24.0,29.92,NNE,23,0.0,0.0,88,0.00,,,0.02,,2013-02-08 11:21:00,
2013-02-08 06:32:00,27.0,24.0,29.93,NNE,23,0.0,0.0,88,0.00,,,0.02,,2013-02-08 11:32:00,
2013-02-08 06:42:00,27.0,24.0,29.93,NNE,23,0.0,0.0,88,0.00,,,0.02,,2013-02-08 11:42:00,
2013-02-08 06:52:00,27.0,24.0,29.94,North,0,0.0,0.0,88,0.00,,,0.02,,2013-02-08 11:52:00,
2013-02-08 07:02:00,26.0,23.0,29.94,NNW,338,3.0,6.0,88,0.00,,,0.02,,2013-02-08 12:02:00,
2013-02-08 07:11:00,26.0,23.0,29.94,NNW,338,3.0,6.0,88,0.00,,,0.02,,2013-02-08 12:11:00,
2013-02-08 07:22:00,26.0,23.0,29.96,North,0,1.0,2.0,88,0.00,,,0.02,,2013-02-08 12:22:00,
2013-02-08 07:33:00,26.0,23.0,29.97,North,0,7.0,8.0,88,0.00,,,0.02,,2013-02-08 12:33:00,
2013-02-08 07:42:00,26.0,23.0,29.97,North,0,7.0,8.0,88,0.00,,,0.02,,2013-02-08 12:42:00,
2013-02-08 07:52:00,25.0,22.0,29.98,North,0,3.0,7.0,88,0.00,,,0.02,,2013-02-08 12:52:00,
2013-02-08 08:02:00,24.0,21.0,29.99,NNW,338,2.0,2.0,88,0.00,,,0.02,,2013-02-08 13:02:00,
2013-02-08 08:12:00,24.0,21.0,29.99,NNW,338,2.0,2.0,88,0.00,,,0.02,,2013-02-08 13:12:00,
2013-02-08 08:22:00,23.0,20.0,30.00,North,0,7.0,10.0,88,0.00,,,0.02,,2013-02-08 13:22:00,
2013-02-08 08:32:00,23.0,20.0,30.01,North,0,10.0,12.0,88,0.00,,,0.02,,2013-02-08 13:32:00,
2013-02-08 08:42:00,23.0,20.0,30.01,North,0,10.0,12.0,88,0.00,,,0.02,,2013-02-08 13:42:00,
2013-02-08 08:52:00,23.0,20.0,30.02,North,0,8.0,13.0,88,0.00,,,0.02,,2013-02-08 13:52:00,
2013-02-08 09:02:00,23.0,20.0,30.03,NNE,23,5.0,13.0,88,0.00,,,0.02,,2013-02-08 14:02:00,
2013-02-08 09:11:00,23.0,20.0,30.03,NNE,23,5.0,13.0,88,0.00,,,0.02,,2013-02-08 14:11:00,
2013-02-08 09:22:00,22.0,19.0,30.03,North,0,6.0,9.0,88,0.00,,,0.02,,2013-02-08 14:22:00,
2013-02-08 09:32:00,22.0,19.0,30.04,North,0,8.0,10.0,88,0.00,,,0.02,,2013-02-08 14:32:00,
2013-02-08 09:42:00,22.0,19.0,30.04,North,0,8.0,10.0,88,0.00,,,0.02,,2013-02-08 14:42:00,
2013-02-08 09:52:00,22.0,19.0,30.05,North,0,3.0,10.0,88,0.00,,,0.02,,2013-02-08 14:52:00,
2013-02-08 10:02:00,22.0,19.0,30.06,NE,45,9.0,9.0,88,0.00,,,0.02,,2013-02-08 15:02:00,
2013-02-08 10:12:00,22.0,19.0,30.06,NE,45,9.0,9.0,88,0.00,,,0.02,,2013-02-08 15:12:00,
2013-02-08 10:22:00,23.0,20.0,30.06,NNE,23,3.0,6.0,88,0.00,,,0.02,,2013-02-08 15:22:00,
2013-02-08 10:32:00,23.0,20.0,30.07,North,0,3.0,3.0,88,0.00,,,0.02,,2013-02-08 15:32:00,
2013-02-08 10:42:00,23.0,20.0,30.07,North,0,3.0,3.0,88,0.00,,,0.02,,2013-02-08 15:42:00,
2013-02-08 10:52:00,24.0,21.0,30.08,North,0,3.0,3.0,88,0.00,,,0.02,,2013-02-08 15:52:00,
2013-02-08 11:01:00,25.0,22.0,30.08,North,0,3.0,6.0,88,0.00,,,0.02,,2013-02-08 16:01:00,
2013-02-08 11:11:00,25.0,22.0,30.08,North,0,3.0,6.0,88,0.00,,,0.02,,2013-02-08 16:11:00,
2013-02-08 11:22:00,26.0,23.0,30.10,North,0,2.0,0.0,88,0.00,,,0.02,,2013-02-08 16:22:00,
2013-02-08 11:32:00,25.0,22.0,30.11,NW,315,8.0,14.0,87,0.00,,,0.02,,2013-02-08 16:32:00,
2013-02-08 11:42:00,25.0,22.0,30.11,NW,315,8.0,14.0,87,0.00,,,0.02,,2013-02-08 16:42:00,
2013-02-08 11:52:00,25.0,22.0,30.11,NNW,338,10.0,12.0,87,0.00,,,0.02,,2013-02-08 16:52:00,
2013-02-08 12:03:00,26.0,22.0,30.12,NE,45,1.0,3.0,86,0.00,,,0.02,,2013-02-08 17:03:00,
2013-02-08 12:12:00,26.0,22.0,30.12,East,90,5.0,7.0,86,0.00,,,0.02,,2013-02-08 17:12:00,
2013-02-08 12:23:00,26.0,22.0,30.12,East,90,5.0,7.0,86,0.00,,,0.02,,2013-02-08 17:23:00,
2013-02-08 12:32:00,27.0,23.0,30.12,North,0,1.0,7.0,85,0.00,,,0.02,,2013-02-08 17:32:00,
2013-02-08 12:42:00,27.0,23.0,30.12,North,0,1.0,7.0,85,0.00,,,0.02,,2013-02-08 17:42:00,
2013-02-08 12:53:00,29.0,25.0,30.12,NNE,23,6.0,6.0,83,0.02,,,0.04,,2013-02-08 17:53:00,
2013-02-08 13:02:00,28.0,23.0,30.12,North,0,3.0,6.0,82,0.04,,,0.06,,2013-02-08 18:02:00,
2013-02-08 13:12:00,28.0,23.0,30.12,North,0,3.0,6.0,82,0.04,,,0.06,,2013-02-08 18:12:00,
2013-02-08 13:24:00,28.0,23.0,30.12,North,0,5.0,5.0,80,0.04,,,0.06,,2013-02-08 18:24:00,
2013-02-08 13:35:00,28.0,23.0,30.13,North,0,3.0,3.0,80,0.04,,,0.06,,2013-02-08 18:35:00,
2013-02-08 13:43:00,28.0,23.0,30.13,North,0,3.0,3.0,80,0.04,,,0.06,,2013-02-08 18:43:00,
2013-02-08 14:02:00,32.0,25.0,30.13,North,0,8.0,13.0,76,0.02,,,0.08,,2013-02-08 19:02:00,
2013-02-08 14:11:00,32.0,25.0,30.13,North,0,8.0,13.0,76,0.02,,,0.08,,2013-02-08 19:11:00,
2013-02-08 14:22:00,33.0,26.0,30.14,North,0,8.0,8.0,74,0.04,,,0.10,,2013-02-08 19:22:00,
2013-02-08 14:32:00,34.0,26.0,30.14,North,0,2.0,6.0,73,0.04,,,0.10,,2013-02-08 19:32:00,
2013-02-08 14:52:00,35.0,26.0,30.14,NW,315,8.0,8.0,70,0.04,,,0.10,,2013-02-08 19:52:00,
2013-02-08 15:02:00,34.0,25.0,30.14,NNW,338,6.0,6.0,69,0.02,,,0.10,,2013-02-08 20:02:00,
2013-02-08 15:12:00,34.0,25.0,30.14,NNW,338,6.0,6.0,69,0.02,,,0.10,,2013-02-08 20:12:00,
2013-02-08 15:22:00,34.0,25.0,30.15,NNW,338,5.0,7.0,68,0.00,,,0.10,,2013-02-08 20:22:00,
2013-02-08 15:32:00,34.0,24.0,30.15,North,0,5.0,8.0,67,0.00,,,0.10,,2013-02-08 20:32:00,
2013-02-08 15:42:00,34.0,24.0,30.15,North,0,5.0,8.0,67,0.00,,,0.10,,2013-02-08 20:42:00,
2013-02-08 15:52:00,32.0,22.0,30.16,NNE,23,1.0,7.0,67,0.00,,,0.10,,2013-02-08 20:52:00,
2013-02-08 16:02:00,32.0,22.0,30.17,North,0,3.0,6.0,66,0.00,,,0.10,,2013-02-08 21:02:00,
2013-02-08 16:12:00,32.0,22.0,30.17,North,0,3.0,6.0,66,0.00,,,0.10,,2013-02-08 21:12:00,
2013-02-08 16:22:00,32.0,22.0,30.17,NNW,338,2.0,3.0,66,0.00,,,0.10,,2013-02-08 21:22:00,
2013-02-08 16:32:00,32.0,22.0,30.18,NNW,338,3.0,6.0,65,0.00,,,0.10,,2013-02-08 21:32:00,
2013-02-08 16:42:00,32.0,22.0,30.18,NNW,338,3.0,6.0,65,0.00,,,0.10,,2013-02-08 21:42:00,
2013-02-08 16:52:00,31.0,21.0,30.18,North,0,2.0,3.0,65,0.00,,,0.10,,2013-02-08 21:52:00,
2013-02-08 17:02:00,30.0,20.0,30.18,NNE,23,3.0,6.0,65,0.00,,,0.10,,2013-02-08 22:02:00,
2013-02-08 17:11:00,30.0,20.0,30.18,NNE,23,3.0,6.0,65,0.00,,,0.10,,2013-02-08 22:11:00,
2013-02-08 17:22:00,28.0,18.0,30.20,NNE,23,1.0,5.0,65,0.00,,,0.10,,2013-02-08 22:22:00,
2013-02-08 17:32:00,27.0,17.0,30.20,North,0,0.0,3.0,66,0.00,,,0.10,,2013-02-08 22:32:00,
2013-02-08 17:42:00,27.0,17.0,30.20,North,0,0.0,3.0,66,0.00,,,0.10,,2013-02-08 22:42:00,
2013-02-08 17:52:00,27.0,18.0,30.21,NNE,23,0.0,0.0,67,0.00,,,0.10,,2013-02-08 22:52:00,
2013-02-08 18:01:00,26.0,17.0,30.22,NNW,338,2.0,5.0,68,0.00,,,0.10,,2013-02-08 23:01:00,
2013-02-08 18:11:00,26.0,17.0,30.22,NNW,338,2.0,5.0,68,0.00,,,0.10,,2013-02-08 23:11:00,
2013-02-08 18:22:00,25.0,16.0,30.24,NNW,338,0.0,0.0,68,0.00,,,0.10,,2013-02-08 23:22:00,
2013-02-08 18:32:00,24.0,15.0,30.24,North,0,0.0,0.0,69,0.00,,,0.10,,2013-02-08 23:32:00,
2013-02-08 18:42:00,24.0,15.0,30.24,North,0,0.0,0.0,69,0.00,,,0.10,,2013-02-08 23:42:00,
2013-02-08 18:52:00,23.0,14.0,30.25,NNW,338,0.0,0.0,69,0.00,,,0.10,,2013-02-08 23:52:00,
2013-02-08 19:02:00,22.0,14.0,30.25,North,0,0.0,0.0,70,0.00,,,0.10,,2013-02-09 00:02:00,
2013-02-08 19:11:00,22.0,14.0,30.25,North,0,0.0,0.0,70,0.00,,,0.10,,2013-02-09 00:11:00,
2013-02-08 19:22:00,22.0,14.0,30.25,North,0,0.0,0.0,70,0.00,,,0.08,,2013-02-09 00:22:00,
2013-02-08 19:32:00,21.0,13.0,30.26,North,0,0.0,0.0,71,0.00,,,0.08,,2013-02-09 00:32:00,
2013-02-08 19:42:00,21.0,13.0,30.26,North,0,0.0,0.0,71,0.00,,,0.08,,2013-02-09 00:42:00,
2013-02-08 19:52:00,20.0,12.0,30.25,NNE,23,0.0,0.0,72,0.00,,,0.08,,2013-02-09 00:52:00,
2013-02-08 20:01:00,20.0,12.0,30.26,NE,45,0.0,0.0,72,0.00,,,0.08,,2013-02-09 01:01:00,
2013-02-08 20:11:00,20.0,12.0,30.26,NE,45,0.0,0.0,72,0.00,,,0.08,,2013-02-09 01:11:00,
2013-02-08 20:22:00,19.0,11.0,30.27,NNE,23,0.0,0.0,72,0.00,,,0.08,,2013-02-09 01:22:00,
2013-02-08 20:32:00,19.0,12.0,30.27,North,0,0.0,0.0,73,0.00,,,0.08,,2013-02-09 01:32:00,
2013-02-08 20:42:00,19.0,12.0,30.27,North,0,0.0,0.0,73,0.00,,,0.08,,2013-02-09 01:42:00,
2013-02-08 20:52:00,19.0,12.0,30.28,NNE,23,0.0,0.0,74,0.00,,,0.08,,2013-02-09 01:52:00,
2013-02-08 21:01:00,18.0,11.0,30.28,NE,45,0.0,0.0,74,0.00,,,0.08,,2013-02-09 02:01:00,
2013-02-08 21:11:00,18.0,11.0,30.29,NE,45,0.0,0.0,74,0.00,,,0.08,,2013-02-09 02:11:00,
2013-02-08 21:21:00,18.0,11.0,30.29,NE,45,0.0,0.0,74,0.00,,,0.08,,2013-02-09 02:21:00,
2013-02-08 21:32:00,18.0,11.0,30.30,NE,45,0.0,0.0,74,0.00,,,0.08,,2013-02-09 02:32:00,
2013-02-08 21:42:00,18.0,11.0,30.30,NE,45,0.0,0.0,74,0.00,,,0.08,,2013-02-09 02:42:00,
2013-02-08 21:53:00,17.0,10.0,30.30,North,0,0.0,0.0,74,0.00,,,0.08,,2013-02-09 02:53:00,
2013-02-08 22:02:00,16.0,9.0,30.32,NNW,338,0.0,0.0,75,0.00,,,0.08,,2013-02-09 03:02:00,
2013-02-08 22:11:00,16.0,9.0,30.32,NNW,338,0.0,0.0,75,0.00,,,0.08,,2013-02-09 03:11:00,
2013-02-08 22:22:00,15.0,9.0,30.32,North,0,0.0,0.0,75,0.00,,,0.08,,2013-02-09 03:22:00,
2013-02-08 22:32:00,15.0,9.0,30.32,North,0,0.0,0.0,75,0.00,,,0.08,,2013-02-09 03:32:00,
2013-02-08 22:42:00,15.0,9.0,30.32,North,0,0.0,0.0,75,0.00,,,0.08,,2013-02-09 03:42:00,
2013-02-08 22:53:00,14.0,8.0,30.32,NNW,338,0.0,0.0,76,0.00,,,0.08,,2013-02-09 03:53:00,
2013-02-08 23:03:00,14.0,8.0,30.32,NNW,338,0.0,0.0,76,0.00,,,0.08,,2013-02-09 04:03:00,
2013-02-08 23:12:00,14.0,8.0,30.32,NW,315,0.0,0.0,77,0.00,,,0.08,,2013-02-09 04:12:00,
2013-02-08 23:23:00,14.0,8.0,30.32,NW,315,0.0,0.0,77,0.00,,,0.08,,2013-02-09 04:23:00,
2013-02-08 23:32:00,13.0,7.0,30.32,NW,315,0.0,0.0,77,0.00,,,0.08,,2013-02-09 04:32:00,
2013-02-08 23:42:00,13.0,7.0,30.32,NW,315,0.0,0.0,77,0.00,,,0.08,,2013-02-09 04:42:00,
2013-02-08 23:52:00,12.0,6.0,30.33,NW,315,0.0,0.0,77,0.00,,,0.08,,2013-02-09 04:52:00,